Time,TemperatureF,DewpointF,PressureIn,WindDirection,WindDirectionDegrees,WindSpeedMPH,WindSpeedGustMPH,Humidity,HourlyPrecipIn,Conditions,Clouds,dailyrainin,SoftwareType,DateUTC
2013-03-17 00:01:00,33.0,32.0,29.78,South,180,2.0,3.0,95,0.00,,,0.04,,2013-03-17 06:01:00,
2013-03-17 00:12:00,33.0,32.0,29.78,South,180,2.0,3.0,95,0.00,,,0.04,,2013-03-17 06:12:00,
2013-03-17 00:21:00,33.0,32.0,29.77,South,180,2.0,3.0,95,0.00,,,0.04,,2013-03-17 06:21:00,
2013-03-17 00:31:00,33.0,32.0,29.77,South,180,2.0,3.0,95,0.00,,,0.04,,2013-03-17 06:31:00,
2013-03-17 00:52:00,33.0,32.0,29.77,South,180,2.0,3.0,95,0.00,,,0.04,,2013-03-17 06:52:00,
2013-03-17 01:01:00,33.0,32.0,29.76,South,180,2.0,3.0,95,0.00,,,0.04,,2013-03-17 07:01:00,
2013-03-17 01:11:00,33.0,32.0,29.76,South,180,2.0,3.0,95,0.00,,,0.04,,2013-03-17 07:11:00,
2013-03-17 01:21:00,33.0,32.0,29.76,South,180,4.0,4.0,95,0.00,,,0.04,,2013-03-17 07:21:00,
2013-03-17 01:31:00,32.0,31.0,29.76,South,180,4.0,4.0,95,0.00,,,0.04,,2013-03-17 07:31:00,
2013-03-17 01:41:00,32.0,31.0,29.76,South,180,4.0,4.0,95,0.00,,,0.04,,2013-03-17 07:41:00,
2013-03-17 01:52:00,31.0,30.0,29.75,SSE,157,3.0,4.0,95,0.00,,,0.04,,2013-03-17 07:52:00,
2013-03-17 02:01:00,32.0,31.0,29.75,SSE,157,2.0,3.0,95,0.00,,,0.04,,2013-03-17 08:01:00,
2013-03-17 02:12:00,33.0,32.0,29.75,SSE,157,2.0,3.0,95,0.00,,,0.04,,2013-03-17 08:12:00,
2013-03-17 02:31:00,31.0,30.0,29.75,South,180,3.0,4.0,95,0.00,,,0.04,,2013-03-17 08:31:00,
2013-03-17 02:41:00,31.0,30.0,29.75,South,180,3.0,4.0,95,0.00,,,0.04,,2013-03-17 08:41:00,
2013-03-17 02:51:00,29.0,27.0,29.72,South,180,4.0,4.0,94,0.00,,,0.04,,2013-03-17 08:51:00,
2013-03-17 03:02:00,29.0,27.0,29.72,South,180,4.0,5.0,94,0.00,,,0.04,,2013-03-17 09:02:00,
2013-03-17 03:11:00,29.0,27.0,29.72,South,180,4.0,5.0,94,0.00,,,0.04,,2013-03-17 09:11:00,
2013-03-17 03:21:00,30.0,28.0,29.72,SSE,157,3.0,4.0,94,0.00,,,0.04,,2013-03-17 09:21:00,
2013-03-17 03:32:00,29.0,27.0,29.71,SSE,157,2.0,2.0,94,0.00,,,0.04,,2013-03-17 09:32:00,
2013-03-17 03:42:00,29.0,27.0,29.71,SSE,157,2.0,2.0,94,0.00,,,0.04,,2013-03-17 09:42:00,
2013-03-17 03:53:00,29.0,27.0,29.71,SSE,157,3.0,4.0,92,0.00,,,0.04,,2013-03-17 09:53:00,
2013-03-17 04:02:00,28.0,26.0,29.70,South,180,4.0,4.0,92,0.00,,,0.04,,2013-03-17 10:02:00,
2013-03-17 04:12:00,28.0,26.0,29.70,South,180,4.0,4.0,92,0.00,,,0.04,,2013-03-17 10:12:00,
2013-03-17 04:23:00,29.0,26.0,29.69,SE,135,2.0,3.0,88,0.00,,,0.04,,2013-03-17 10:23:00,
2013-03-17 04:32:00,30.0,25.0,29.67,ESE,112,4.0,5.0,83,0.00,,,0.04,,2013-03-17 10:32:00,
2013-03-17 04:42:00,30.0,25.0,29.67,ESE,112,4.0,5.0,83,0.00,,,0.04,,2013-03-17 10:42:00,
2013-03-17 04:52:00,31.0,26.0,29.66,SSE,157,2.0,3.0,83,0.00,,,0.04,,2013-03-17 10:52:00,
2013-03-17 05:02:00,29.0,26.0,29.66,South,180,2.0,4.0,89,0.00,,,0.04,,2013-03-17 11:02:00,
2013-03-17 05:11:00,29.0,26.0,29.66,South,180,2.0,4.0,89,0.00,,,0.04,,2013-03-17 11:11:00,
2013-03-17 05:21:00,31.0,27.0,29.66,WNW,292,3.0,4.0,85,0.00,,,0.04,,2013-03-17 11:21:00,
2013-03-17 05:32:00,32.0,27.0,29.67,NNW,337,2.0,2.0,83,0.00,,,0.04,,2013-03-17 11:32:00,
2013-03-17 05:42:00,32.0,27.0,29.67,NNW,337,2.0,2.0,83,0.00,,,0.04,,2013-03-17 11:42:00,
2013-03-17 05:51:00,33.0,29.0,29.67,WSW,247,2.0,3.0,85,0.00,,,0.04,,2013-03-17 11:51:00,
2013-03-17 06:01:00,32.0,29.0,29.67,SW,225,2.0,2.0,88,0.00,,,0.04,,2013-03-17 12:01:00,
2013-03-17 06:12:00,32.0,29.0,29.67,SW,225,2.0,2.0,88,0.00,,,0.04,,2013-03-17 12:12:00,
2013-03-17 06:21:00,32.0,29.0,29.67,South,180,2.0,3.0,89,0.00,,,0.04,,2013-03-17 12:21:00,
2013-03-17 06:32:00,31.0,29.0,29.67,NE,45,3.0,4.0,92,0.00,,,0.04,,2013-03-17 12:32:00,
2013-03-17 06:42:00,31.0,29.0,29.67,NE,45,3.0,4.0,92,0.00,,,0.04,,2013-03-17 12:42:00,
2013-03-17 06:51:00,32.0,30.0,29.67,NE,45,1.0,2.0,92,0.00,,,0.04,,2013-03-17 12:51:00,
2013-03-17 07:01:00,30.0,27.0,29.67,SW,225,3.0,4.0,90,0.00,,,0.04,,2013-03-17 13:01:00,
2013-03-17 07:11:00,30.0,27.0,29.67,SW,225,3.0,4.0,90,0.00,,,0.04,,2013-03-17 13:11:00,
2013-03-17 07:21:00,30.0,28.0,29.69,SW,225,3.0,4.0,94,0.00,,,0.04,,2013-03-17 13:21:00,
2013-03-17 07:32:00,34.0,31.0,29.71,West,270,3.0,6.0,87,0.00,,,0.04,,2013-03-17 13:32:00,
2013-03-17 07:42:00,34.0,31.0,29.71,West,270,3.0,6.0,87,0.00,,,0.04,,2013-03-17 13:42:00,
2013-03-17 07:52:00,36.0,30.0,29.71,West,270,1.0,2.0,79,0.00,,,0.04,,2013-03-17 13:52:00,
2013-03-17 08:01:00,37.0,31.0,29.71,NW,315,2.0,2.0,78,0.00,,,0.04,,2013-03-17 14:01:00,
2013-03-17 08:11:00,37.0,31.0,29.71,NW,315,2.0,2.0,78,0.00,,,0.04,,2013-03-17 14:11:00,
2013-03-17 08:21:00,35.0,32.0,29.72,NE,45,8.0,10.0,88,0.00,,,0.04,,2013-03-17 14:21:00,
2013-03-17 08:31:00,34.0,32.0,29.72,East,90,3.0,4.0,91,0.00,,,0.04,,2013-03-17 14:31:00,
2013-03-17 08:42:00,34.0,32.0,29.72,East,90,3.0,4.0,91,0.00,,,0.04,,2013-03-17 14:42:00,
2013-03-17 08:52:00,35.0,32.0,29.72,South,180,3.0,4.0,90,0.00,,,0.04,,2013-03-17 14:52:00,
2013-03-17 09:01:00,35.0,32.0,29.72,South,180,3.0,4.0,90,0.00,,,0.04,,2013-03-17 15:01:00,
2013-03-17 09:11:00,35.0,32.0,29.72,South,180,3.0,4.0,90,0.00,,,0.04,,2013-03-17 15:11:00,
2013-03-17 09:22:00,36.0,33.0,29.74,South,180,6.0,7.0,89,0.00,,,0.04,,2013-03-17 15:22:00,
2013-03-17 09:32:00,38.0,34.0,29.75,South,180,6.0,7.0,85,0.00,,,0.04,,2013-03-17 15:32:00,
2013-03-17 09:42:00,38.0,34.0,29.75,South,180,6.0,7.0,85,0.00,,,0.04,,2013-03-17 15:42:00,
2013-03-17 09:52:00,39.0,34.0,29.75,SSE,157,4.0,6.0,81,0.00,,,0.04,,2013-03-17 15:52:00,
2013-03-17 10:03:00,41.0,35.0,29.75,South,180,3.0,4.0,79,0.00,,,0.04,,2013-03-17 16:03:00,
2013-03-17 10:12:00,41.0,35.0,29.75,South,180,3.0,4.0,79,0.00,,,0.04,,2013-03-17 16:12:00,
2013-03-17 10:22:00,41.0,35.0,29.75,South,180,3.0,4.0,79,0.00,,,0.04,,2013-03-17 16:22:00,
2013-03-17 10:32:00,48.0,34.0,29.78,ESE,112,7.0,9.0,57,0.00,,,0.04,,2013-03-17 16:32:00,
2013-03-17 10:42:00,48.0,34.0,29.78,ESE,112,7.0,9.0,57,0.00,,,0.04,,2013-03-17 16:42:00,
2013-03-17 10:52:00,49.0,33.0,29.79,East,90,7.0,11.0,54,0.00,,,0.03,,2013-03-17 16:52:00,
2013-03-17 11:02:00,48.0,32.0,29.78,SE,135,3.0,5.0,54,0.00,,,0.01,,2013-03-17 17:02:00,
2013-03-17 11:12:00,48.0,32.0,29.78,SE,135,3.0,5.0,54,0.00,,,0.01,,2013-03-17 17:12:00,
2013-03-17 11:22:00,49.0,32.0,29.78,ESE,112,5.0,8.0,52,0.00,,,0.01,,2013-03-17 17:22:00,
2013-03-17 11:32:00,52.0,34.0,29.77,ESE,112,9.0,11.0,50,0.00,,,0.01,,2013-03-17 17:32:00,
2013-03-17 11:41:00,52.0,34.0,29.77,ESE,112,9.0,11.0,50,0.00,,,0.01,,2013-03-17 17:41:00,
2013-03-17 11:52:00,53.0,31.0,29.78,ESE,112,3.0,4.0,42,0.00,,,0.01,,2013-03-17 17:52:00,
2013-03-17 12:01:00,54.0,29.0,29.78,North,360,2.0,2.0,38,0.00,,,0.01,,2013-03-17 18:01:00,
2013-03-17 12:11:00,54.0,29.0,29.78,North,360,2.0,2.0,38,0.00,,,0.01,,2013-03-17 18:11:00,
2013-03-17 12:21:00,53.0,30.0,29.78,WNW,292,4.0,6.0,41,0.00,,,0.01,,2013-03-17 18:21:00,
2013-03-17 12:32:00,53.0,29.0,29.78,NW,315,5.0,8.0,39,0.00,,,0.01,,2013-03-17 18:32:00,
2013-03-17 12:42:00,53.0,29.0,29.78,NW,315,5.0,8.0,39,0.00,,,0.01,,2013-03-17 18:42:00,
2013-03-17 12:52:00,53.0,29.0,29.78,NW,315,5.0,8.0,39,0.00,,,0.01,,2013-03-17 18:52:00,
2013-03-17 13:02:00,54.0,28.0,29.77,NNW,337,6.0,9.0,37,0.00,,,0.01,,2013-03-17 19:02:00,
2013-03-17 13:12:00,54.0,28.0,29.77,NNW,337,6.0,9.0,37,0.00,,,0.01,,2013-03-17 19:12:00,
2013-03-17 13:22:00,56.0,29.0,29.77,WNW,292,11.0,16.0,35,0.00,,,0.01,,2013-03-17 19:22:00,
2013-03-17 13:32:00,54.0,18.0,29.76,WNW,292,13.0,19.0,24,0.00,,,0.01,,2013-03-17 19:32:00,
2013-03-17 13:41:00,54.0,18.0,29.76,WNW,292,13.0,19.0,24,0.00,,,0.01,,2013-03-17 19:41:00,
2013-03-17 13:52:00,55.0,20.0,29.77,West,270,9.0,18.0,25,0.00,,,0.01,,2013-03-17 19:52:00,
2013-03-17 14:01:00,57.0,17.0,29.78,WNW,292,13.0,17.0,21,0.00,,,0.01,,2013-03-17 20:01:00,
2013-03-17 14:11:00,57.0,17.0,29.78,WNW,292,13.0,17.0,21,0.00,,,0.01,,2013-03-17 20:11:00,
2013-03-17 14:22:00,58.0,17.0,29.76,West,270,21.0,27.0,20,0.00,,,0.01,,2013-03-17 20:22:00,
2013-03-17 14:31:00,58.0,16.0,29.77,West,270,16.0,24.0,19,0.00,,,0.01,,2013-03-17 20:31:00,
2013-03-17 14:41:00,58.0,16.0,29.77,West,270,16.0,24.0,19,0.00,,,0.01,,2013-03-17 20:41:00,
2013-03-17 14:52:00,58.0,16.0,29.77,West,270,16.0,24.0,19,0.00,,,0.01,,2013-03-17 20:52:00,
2013-03-17 15:11:00,57.0,16.0,29.77,West,270,12.0,16.0,20,0.00,,,0.01,,2013-03-17 21:11:00,
2013-03-17 15:22:00,59.0,17.0,29.77,West,270,17.0,24.0,19,0.00,,,0.01,,2013-03-17 21:22:00,
2013-03-17 15:32:00,59.0,17.0,29.78,NW,315,18.0,24.0,19,0.00,,,0.01,,2013-03-17 21:32:00,
2013-03-17 15:42:00,59.0,17.0,29.78,NW,315,18.0,24.0,19,0.00,,,0.01,,2013-03-17 21:42:00,
2013-03-17 15:52:00,59.0,14.0,29.77,West,270,15.0,24.0,17,0.00,,,0.01,,2013-03-17 21:52:00,
2013-03-17 16:02:00,59.0,16.0,29.77,WSW,247,17.0,28.0,18,0.00,,,0.01,,2013-03-17 22:02:00,
2013-03-17 16:12:00,57.0,15.0,29.77,West,270,19.0,27.0,19,0.00,,,0.01,,2013-03-17 22:12:00,
2013-03-17 16:22:00,57.0,15.0,29.77,West,270,19.0,27.0,19,0.00,,,0.01,,2013-03-17 22:22:00,
2013-03-17 16:33:00,58.0,16.0,29.77,West,270,24.0,34.0,19,0.00,,,0.01,,2013-03-17 22:33:00,
2013-03-17 16:41:00,58.0,16.0,29.77,West,270,24.0,34.0,19,0.00,,,0.01,,2013-03-17 22:41:00,
2013-03-17 16:52:00,57.0,15.0,29.78,West,270,13.0,23.0,19,0.00,,,0.01,,2013-03-17 22:52:00,
2013-03-17 17:02:00,56.0,14.0,29.78,West,270,20.0,31.0,19,0.00,,,0.01,,2013-03-17 23:02:00,
2013-03-17 17:12:00,56.0,14.0,29.78,West,270,20.0,31.0,19,0.00,,,0.01,,2013-03-17 23:12:00,
2013-03-17 17:21:00,57.0,14.0,29.78,NW,315,18.0,22.0,18,0.00,,,0.01,,2013-03-17 23:21:00,
2013-03-17 17:32:00,54.0,13.0,29.79,WNW,292,18.0,26.0,19,0.00,,,0.00,,2013-03-17 23:32:00,
2013-03-17 17:41:00,54.0,13.0,29.79,WNW,292,18.0,26.0,19,0.00,,,0.00,,2013-03-17 23:41:00,
2013-03-17 17:52:00,55.0,15.0,29.79,West,270,17.0,24.0,20,0.00,,,0.00,,2013-03-17 23:52:00,
2013-03-17 18:02:00,55.0,12.0,29.80,NW,315,19.0,24.0,18,0.00,,,0.00,,2013-03-18 00:02:00,
2013-03-17 18:11:00,55.0,12.0,29.80,NW,315,19.0,24.0,18,0.00,,,0.00,,2013-03-18 00:11:00,
2013-03-17 18:21:00,54.0,13.0,29.79,West,270,15.0,22.0,19,0.00,,,0.00,,2013-03-18 00:21:00,
2013-03-17 18:32:00,52.0,13.0,29.80,WNW,292,14.0,20.0,21,0.00,,,0.00,,2013-03-18 00:32:00,
2013-03-17 18:41:00,52.0,13.0,29.80,WNW,292,14.0,20.0,21,0.00,,,0.00,,2013-03-18 00:41:00,
2013-03-17 18:52:00,53.0,13.0,29.80,WNW,292,12.0,17.0,20,0.00,,,0.00,,2013-03-18 00:52:00,
2013-03-17 19:01:00,52.0,10.0,29.81,West,270,18.0,26.0,18,0.00,,,0.00,,2013-03-18 01:01:00,
2013-03-17 19:11:00,52.0,10.0,29.81,West,270,18.0,26.0,18,0.00,,,0.00,,2013-03-18 01:11:00,
2013-03-17 19:21:00,51.0,11.0,29.81,West,270,14.0,20.0,20,0.00,,,0.00,,2013-03-18 01:21:00,
2013-03-17 19:31:00,50.0,12.0,29.81,West,270,10.0,14.0,21,0.00,,,0.00,,2013-03-18 01:31:00,
2013-03-17 19:41:00,50.0,12.0,29.81,West,270,10.0,14.0,21,0.00,,,0.00,,2013-03-18 01:41:00,
2013-03-17 19:52:00,48.0,12.0,29.80,West,270,11.0,21.0,23,0.00,,,0.00,,2013-03-18 01:52:00,
2013-03-17 20:01:00,48.0,10.0,29.80,WNW,292,10.0,13.0,21,0.00,,,0.00,,2013-03-18 02:01:00,
2013-03-17 20:11:00,48.0,10.0,29.80,WNW,292,10.0,13.0,21,0.00,,,0.00,,2013-03-18 02:11:00,
2013-03-17 20:21:00,47.0,10.0,29.81,WNW,292,9.0,13.0,22,0.00,,,0.00,,2013-03-18 02:21:00,
2013-03-17 20:32:00,46.0,11.0,29.81,WNW,292,6.0,7.0,24,0.00,,,0.00,,2013-03-18 02:32:00,
2013-03-17 20:42:00,46.0,11.0,29.81,WNW,292,6.0,7.0,24,0.00,,,0.00,,2013-03-18 02:42:00,
2013-03-17 20:52:00,44.0,10.0,29.81,West,270,6.0,8.0,25,0.00,,,0.00,,2013-03-18 02:52:00,
2013-03-17 21:02:00,43.0,10.0,29.81,NW,315,3.0,4.0,26,0.00,,,0.00,,2013-03-18 03:02:00,
2013-03-17 21:11:00,43.0,10.0,29.81,NW,315,3.0,4.0,26,0.00,,,0.00,,2013-03-18 03:11:00,
2013-03-17 21:21:00,43.0,10.0,29.81,NW,315,3.0,4.0,26,0.00,,,0.00,,2013-03-18 03:21:00,
2013-03-17 21:32:00,42.0,10.0,29.81,NW,315,4.0,5.0,26,0.00,,,0.00,,2013-03-18 03:32:00,
2013-03-17 21:42:00,42.0,10.0,29.81,NW,315,4.0,5.0,26,0.00,,,0.00,,2013-03-18 03:42:00,
2013-03-17 21:53:00,42.0,10.0,29.81,NW,315,5.0,7.0,26,0.00,,,0.00,,2013-03-18 03:53:00,
2013-03-17 22:02:00,40.0,9.0,29.81,West,270,2.0,4.0,27,0.00,,,0.00,,2013-03-18 04:02:00,
2013-03-17 22:12:00,40.0,9.0,29.81,West,270,2.0,4.0,27,0.00,,,0.00,,2013-03-18 04:12:00,
2013-03-17 22:22:00,39.0,9.0,29.81,West,270,1.0,2.0,29,0.00,,,0.00,,2013-03-18 04:22:00,
2013-03-17 22:32:00,39.0,9.0,29.80,WNW,292,4.0,5.0,29,0.00,,,0.00,,2013-03-18 04:32:00,
2013-03-17 22:41:00,39.0,9.0,29.80,WNW,292,4.0,5.0,29,0.00,,,0.00,,2013-03-18 04:41:00,
2013-03-17 22:52:00,38.0,9.0,29.81,WNW,292,3.0,5.0,29,0.00,,,0.00,,2013-03-18 04:52:00,
2013-03-17 23:02:00,37.0,8.0,29.81,WNW,292,4.0,5.0,30,0.00,,,0.00,,2013-03-18 05:02:00,
2013-03-17 23:11:00,37.0,8.0,29.81,WNW,292,4.0,5.0,30,0.00,,,0.00,,2013-03-18 05:11:00,
2013-03-17 23:22:00,38.0,9.0,29.82,NW,315,5.0,7.0,29,0.00,,,0.00,,2013-03-18 05:22:00,
2013-03-17 23:32:00,38.0,9.0,29.82,WNW,292,4.0,7.0,29,0.00,,,0.00,,2013-03-18 05:32:00,
2013-03-17 23:42:00,38.0,9.0,29.82,WNW,292,4.0,7.0,29,0.00,,,0.00,,2013-03-18 05:42:00,
2013-03-17 23:51:00,37.0,8.0,29.82,WNW,292,2.0,6.0,30,0.00,,,0.00,,2013-03-18 05:51:00,